Date String (YYYY-MM-DD hh:mm:ss) UTC,Instrument flags,absolute air pressure of the measurement (hPa),sample flow rate (lpm),inlet stack bypass flow (lpm),air temperature of the measurement (°C),ambient temperature measured by the external sensor (°C),aerosol sample conditioner tube jacket temperature (°C),OPC LED temperature (°C),internal box temperature (°C),relative humidity of the measurement (%),span deviation,mass concentration of particles derived from Lorenz-Mie calculation of OPC scattering (μg/m³),mass concentration of particles derived from Lorenz-Mie calculation of OPC scattering (μg/m³),mass concentration of particles derived from Lorenz-Mie calculation of OPC scattering (μg/m³)
DateTimeUTC,F1_M11,P_M11,Q1_M11,Q2_M11,T1_M11,T2_M11,T3_M11,T4_M11,T5_M11,U1_M11,ZSPAN_M11,X2_M11,X0_M11,X1_M11
2023-08-07 11:00:00,SystemResetWarning,0834.5,5.00,000.00,030.1,028.6,000.0,038.8,031.5,27.3,-001.4,0005.41,0008.97,0004.98
2023-08-07 11:01:00,SystemResetWarning,0834.5,4.99,000.00,030.1,028.6,000.0,038.8,031.6,27.3,-001.4,0005.39,0008.92,0004.97
2023-08-07 11:02:00,SystemResetWarning,0834.5,5.00,000.00,030.1,028.6,000.0,038.8,031.5,27.3,-001.3,0005.42,0008.93,0005.00
2023-08-07 11:03:00,SystemResetWarning,0834.5,5.00,000.00,030.1,028.6,000.0,038.8,031.5,27.4,-001.5,0005.46,0009.63,0005.02
2023-08-07 11:04:00,SystemResetWarning,0834.5,5.00,000.00,030.1,028.6,000.0,038.8,031.6,27.3,-001.3,0005.44,0009.95,0005.00
2023-08-07 11:05:00,SystemResetWarning,0834.5,5.00,000.00,030.1,028.6,000.0,038.8,031.6,27.3,-001.1,0005.38,0009.87,0004.96
2023-08-07 11:06:00,SystemResetWarning,0834.5,5.00,000.00,030.1,028.6,000.0,038.8,031.6,27.3,-000.7,0005.36,0009.93,0004.91
2023-08-07 11:07:00,SystemResetWarning,0834.6,5.00,000.00,030.1,028.6,000.0,038.8,031.6,27.5,-000.6,0005.33,0009.96,0004.86
2023-08-07 11:08:00,SystemResetWarning,0834.5,5.00,000.00,030.1,028.6,000.0,038.8,031.6,27.6,-000.5,0005.27,0009.92,0004.80
2023-08-07 11:09:00,SystemResetWarning,0834.8,5.00,000.00,030.1,028.6,000.0,038.8,031.6,27.4,-000.1,0005.23,0009.20,0004.74
2023-08-07 11:10:00,SystemResetWarning,0834.5,5.00,000.00,030.1,028.6,000.0,038.8,031.6,27.5,0001.1,0005.21,0009.46,0004.70
2023-08-07 11:11:00,SystemResetWarning,0834.5,5.00,000.00,030.1,028.6,000.0,038.8,031.6,27.4,0000.8,0005.20,0009.50,0004.66
2023-08-07 11:12:00,SystemResetWarning,0834.5,5.00,000.00,030.1,028.6,000.0,038.8,031.5,27.4,0001.0,0005.18,0010.07,0004.66
2023-08-07 11:13:00,SystemResetWarning,0834.5,4.99,000.00,030.1,028.6,000.0,038.8,031.6,27.6,0001.0,0005.11,0010.73,0004.61
2023-08-07 11:14:00,SystemResetWarning,0834.8,5.00,000.00,030.1,028.6,000.0,038.8,031.5,27.6,0001.3,0005.08,0010.20,0004.58
2023-08-07 11:15:00,SystemResetWarning,0834.5,5.00,000.00,030.1,028.6,000.0,038.8,031.6,27.6,0001.3,0005.12,0010.08,0004.60
2023-08-07 11:16:00,SystemResetWarning,0834.5,5.00,000.00,030.1,028.6,000.0,038.8,031.6,27.5,-000.0,0005.18,0010.46,0004.64
2023-08-07 11:17:00,SystemResetWarning,0834.5,5.01,000.00,030.1,028.6,000.0,038.8,031.6,27.5,-000.5,0005.23,0010.50,0004.69
2023-08-07 11:18:00,SystemResetWarning,0834.5,5.00,000.00,030.1,028.6,000.0,038.8,031.6,27.4,0000.1,0005.28,0010.51,0004.74
2023-08-07 11:19:00,SystemResetWarning,0834.5,5.00,000.00,030.1,028.6,000.0,038.8,031.6,27.4,0000.8,0005.29,0010.42,0004.78
2023-08-07 11:20:00,SystemResetWarning,0834.5,5.00,000.00,030.1,028.6,000.0,038.8,031.6,27.4,0000.7,0005.30,0010.29,0004.82
2023-08-07 11:21:00,SystemResetWarning,0834.5,5.00,000.00,030.1,028.6,000.0,038.8,031.5,27.4,-000.3,0005.32,0010.08,0004.84
2023-08-07 11:22:00,SystemResetWarning,0834.5,5.00,000.00,030.1,028.6,000.0,038.8,031.5,27.4,0000.7,0005.34,0010.00,0004.88
2023-08-07 11:23:00,SystemResetWarning,0834.5,5.00,000.00,030.1,028.5,000.0,038.8,031.5,27.3,0000.2,0005.36,0009.41,0004.90
2023-08-07 11:24:00,SystemResetWarning,0834.5,4.99,000.00,030.1,028.5,000.0,038.8,031.5,27.5,0000.5,0005.39,0008.67,0004.91
2023-08-07 11:25:00,SystemResetWarning,0834.4,4.99,000.00,030.1,028.5,000.0,038.8,031.5,27.5,0000.5,0005.39,0008.56,0004.92
2023-08-07 11:26:00,SystemResetWarning,0834.4,5.00,000.00,030.1,028.5,000.0,038.8,031.5,27.5,0001.2,0005.37,0008.33,0004.93
2023-08-07 11:27:00,SystemResetWarning,0834.5,5.00,000.00,030.1,028.5,000.0,038.7,031.5,27.5,0002.2,0005.37,0008.18,0004.92
2023-08-07 11:28:00,SystemResetWarning,0834.5,5.00,000.00,030.1,028.5,000.0,038.7,031.5,27.5,0002.9,0005.35,0008.34,0004.92
2023-08-07 11:29:00,SystemResetWarning,0834.5,5.01,000.00,030.0,028.5,000.0,038.7,031.5,27.5,0000.9,0005.32,0008.29,0004.91
2023-08-07 11:30:00,SystemResetWarning,0834.5,5.00,000.00,030.0,028.5,000.0,038.7,031.5,27.5,0001.5,0005.38,0008.57,0004.93
2023-08-07 11:31:00,SystemResetWarning,0834.5,5.00,000.00,030.0,028.5,000.0,038.7,031.5,27.6,0002.4,0005.43,0008.73,0004.94
2023-08-07 11:32:00,SystemResetWarning,0834.5,5.01,000.00,030.0,028.5,000.0,038.7,031.5,27.6,0002.6,0005.47,0008.74,0004.98
2023-08-07 11:33:00,SystemResetWarning,0834.9,5.00,000.00,030.0,028.5,000.0,038.7,031.5,27.6,0001.7,0005.51,0008.81,0005.02
2023-08-07 11:34:00,SystemResetWarning,0834.8,5.00,000.00,030.0,028.5,000.0,038.7,031.5,27.6,0001.8,0005.57,0008.88,0005.08
2023-08-07 11:35:00,SystemResetWarning,0835.0,5.00,000.00,030.0,028.5,000.0,038.7,031.5,27.6,0001.2,0005.64,0008.95,0005.16
2023-08-07 11:36:00,SystemResetWarning,0835.0,5.00,000.00,030.0,028.4,000.0,038.7,031.4,27.6,0001.0,0005.69,0008.95,0005.22
2023-08-07 11:37:00,SystemResetWarning,0835.1,5.00,000.00,030.0,028.4,000.0,038.7,031.4,27.7,0000.8,0005.76,0009.15,0005.28
2023-08-07 11:38:00,SystemResetWarning,0835.1,5.00,000.00,030.0,028.4,000.0,038.7,031.4,27.7,0000.6,0005.82,0009.45,0005.34
2023-08-07 11:39:00,SystemResetWarning,0834.9,4.99,000.00,030.0,028.4,000.0,038.7,031.4,27.6,0000.3,0005.87,0009.25,0005.38
2023-08-07 11:40:00,SystemResetWarning,0835.0,5.00,000.00,030.0,028.4,000.0,038.7,031.5,27.6,0000.2,0005.88,0009.29,0005.40
2023-08-07 11:41:00,SystemResetWarning,0835.1,5.01,000.00,030.0,028.4,000.0,038.7,031.4,27.6,0000.6,0005.87,0009.70,0005.39
2023-08-07 11:42:00,SystemResetWarning,0835.1,5.01,000.00,030.0,028.4,000.0,038.7,031.4,27.5,0000.3,0005.86,0009.73,0005.39
2023-08-07 11:43:00,SystemResetWarning,0834.7,5.00,000.00,030.0,028.4,000.0,038.7,031.4,27.5,0000.1,0005.84,0009.68,0005.39
2023-08-07 11:44:00,SystemResetWarning,0834.7,4.99,000.00,030.0,028.4,000.0,038.7,031.4,27.6,0000.1,0005.81,0009.63,0005.37
2023-08-07 11:45:00,SystemResetWarning,0834.9,5.00,000.00,030.0,028.4,000.0,038.7,031.4,27.6,-000.5,0005.78,0009.63,0005.35
2023-08-07 11:46:00,SystemResetWarning,0835.0,4.99,000.00,030.0,028.4,000.0,038.7,031.4,27.6,-000.4,0005.78,0009.75,0005.31
2023-08-07 11:47:00,SystemResetWarning,0835.0,5.00,000.00,030.0,028.4,000.0,038.6,031.4,27.6,-000.2,0005.79,0009.83,0005.30
2023-08-07 11:48:00,SystemResetWarning,0834.6,5.00,000.00,029.9,028.4,000.0,038.6,031.4,27.6,-000.4,0005.79,0009.76,0005.28
2023-08-07 11:49:00,SystemResetWarning,0834.7,5.00,000.00,029.9,028.4,000.0,038.6,031.4,27.5,-000.4,0005.76,0009.38,0005.28
2023-08-07 11:50:00,SystemResetWarning,0834.6,5.00,000.00,029.9,028.4,000.0,038.6,031.4,27.5,-000.7,0005.75,0009.42,0005.29
2023-08-07 11:51:00,SystemResetWarning,0834.6,5.00,000.00,029.9,028.4,000.0,038.6,031.4,27.5,-000.4,0005.77,0009.46,0005.31
2023-08-07 11:52:00,SystemResetWarning,0834.9,5.00,000.00,029.9,028.4,000.0,038.6,031.4,27.5,-000.5,0005.80,0008.99,0005.35
2023-08-07 11:53:00,SystemResetWarning,0835.1,4.99,000.00,029.9,028.3,000.0,038.6,031.4,27.5,-000.6,0005.83,0008.88,0005.39
2023-08-07 11:54:00,SystemResetWarning,0834.7,5.00,000.00,029.9,028.3,000.0,038.6,031.4,27.6,-000.6,0005.86,0008.91,0005.42
2023-08-07 11:55:00,SystemResetWarning,0834.8,5.02,000.00,029.9,028.4,000.0,038.6,031.4,27.6,-000.8,0005.92,0008.95,0005.47
2023-08-07 11:56:00,SystemResetWarning,0835.1,5.01,000.00,029.9,028.4,000.0,038.6,031.4,27.5,-000.3,0005.96,0008.93,0005.52
2023-08-07 11:57:00,SystemResetWarning,0834.7,5.00,000.00,029.9,028.4,000.0,038.6,031.4,27.6,-000.6,0005.99,0008.97,0005.57
2023-08-07 11:58:00,SystemResetWarning,0834.5,4.99,000.00,029.9,028.4,000.0,038.6,031.4,27.5,-000.9,0006.02,0009.03,0005.61
2023-08-07 11:59:00,SystemResetWarning,0834.5,4.99,000.00,029.9,028.4,000.0,038.6,031.4,27.5,-001.0,0006.05,0009.01,0005.64
